Weather History for KEKO - September, 2012

Change the Weather History Date:

Monday, September 17, 2012

  Actual Average Record
Temperature  
Mean Temperature 60 °F 58 °F  
Max Temperature 81 °F 78 °F 94 °F (1929)
Min Temperature 39 °F 39 °F 13 °F (1889)
Degree Days  
Heating Degree Days 5 7  
Month to date heating degree days 25 81  
Since 1 July heating degree days 25 132  
Cooling Degree Days 0 0  
Month to date cooling degree days 22 20  
Year to date cooling degree days 682 382  
Growing Degree Days 10 (Base 50)    
Moisture  
Dew Point 25 °F    
Average Humidity 33    
Maximum Humidity 54    
Minimum Humidity 12    
Precipitation  
Precipitation 0.00 in 0.02 in 0.36 in (1989)
Month to date precipitation T 0.28  
Year to date precipitation 4.90 6.56  
Snow  
Snow 0.00 in 0.00 in T in (1965)
Month to date snowfall 0.0 0.0  
Since 1 July snowfall 0.0 0.0  
Since 1 September snowfall 0.0 0.0  
Snow Depth 0.00 in    
Sea Level Pressure  
Sea Level Pressure 30.11 in    
Wind  
Wind Speed 2 mph (ENE)    
Max Wind Speed 9 mph    
Max Gust Speed 17 mph    
Visibility 9 miles    
Events      
T = Trace of Precipitation, MM = Missing Value Source: NWS Daily Summary

Daily Weather History Graph

Daily Weather History Graph

Search for Another Location

Airport or City:

Trip Planner

Search our weather history database for the weather conditions in past years. The results will help you decide how hot, cold, wet, or windy it might be!

Date:

Astronomy

Sep. 17, 2012 Rise Set
Actual Time 6:26 AM PDT 6:47 PM PDT
Civil Twilight 5:58 AM PDT 7:15 PM PDT
Nautical Twilight 5:26 AM PDT 7:47 PM PDT
Astronomical Twilight 4:53 AM PDT 8:20 PM PDT
Moon 8:21 AM PDT (9/17) 7:31 PM PDT (9/17)
Length of Visible Light 13h 16m
Length of Day
12h 21m
Waxing Crescent, 4% of the Moon is Illuminated
Sep 17
Waxing Crescent
Sep 22
First Quarter
Sep 29
Full
Oct 8
Last Quarter
Oct 15
New

Hourly Weather History & Observations

Time (PDT) Temp. Windchill Dew Point Humidity Pressure Visibility Wind Dir Wind Speed Gust Speed Precip Events Conditions
12:56 AM 52.0 °F - 25.0 °F 35% 30.07 in 10.0 mi ENE 4.6 mph - N/A   Clear
1:56 AM 46.9 °F - 21.9 °F 37% 30.10 in 10.0 mi Calm Calm - N/A   Clear
2:56 AM 46.9 °F - 25.0 °F 42% 30.10 in 10.0 mi NE 4.6 mph - N/A   Clear
3:56 AM 45.0 °F - 25.0 °F 46% 30.11 in 10.0 mi Calm Calm - N/A   Clear
4:56 AM 43.0 °F 41.3 °F 25.0 °F 49% 30.12 in 9.0 mi East 3.5 mph - N/A   Clear
5:56 AM 41.0 °F - 24.1 °F 51% 30.15 in 8.0 mi Calm Calm - N/A   Clear
6:56 AM 39.9 °F - 25.0 °F 55% 30.18 in 5.0 mi Calm Calm - N/A   Haze
7:56 AM 48.9 °F - 26.1 °F 41% 30.19 in 5.0 mi Calm Calm - N/A   Haze
8:56 AM 55.0 °F - 28.0 °F 35% 30.20 in 7.0 mi Calm Calm - N/A   Clear
9:56 AM 62.1 °F - 30.0 °F 30% 30.19 in 9.0 mi Calm Calm - N/A   Clear
10:56 AM 70.0 °F - 32.0 °F 25% 30.15 in 9.0 mi Calm Calm - N/A   Clear
11:56 AM 75.0 °F - 30.0 °F 19% 30.12 in 10.0 mi Variable 5.8 mph - N/A   Clear
12:56 PM 78.1 °F - 26.1 °F 15% 30.10 in 10.0 mi NE 8.1 mph - N/A   Clear
1:56 PM 79.0 °F - 26.1 °F 14% 30.09 in 10.0 mi East 8.1 mph - N/A   Clear
2:56 PM 79.0 °F - 24.1 °F 13% 30.07 in 10.0 mi Calm Calm - N/A   Clear
3:56 PM 80.1 °F - 23.0 °F 12% 30.05 in 10.0 mi SSW 3.5 mph - N/A   Clear
4:56 PM 80.1 °F - 23.0 °F 12% 30.05 in 10.0 mi Variable 3.5 mph - N/A   Clear
5:56 PM 77.0 °F - 25.0 °F 15% 30.06 in 10.0 mi WSW 4.6 mph - N/A   Clear
6:56 PM 71.1 °F - 28.9 °F 21% 30.08 in 10.0 mi Calm Calm - N/A   Clear
7:56 PM 64.9 °F - 24.1 °F 21% 30.09 in 10.0 mi North 4.6 mph - N/A   Clear
9:56 PM 52.0 °F - 27.0 °F 38% 30.13 in 10.0 mi East 3.5 mph - N/A   Clear
10:56 PM 52.0 °F - 21.0 °F 30% 30.12 in 10.0 mi WSW 5.8 mph - N/A   Clear
11:56 PM 48.0 °F - 21.0 °F 34% 30.12 in 10.0 mi Calm Calm - N/A   Clear